Regional Weather Roundup
Issued by NWS

Home | Current Version | Previous Version | Graphics & Text | Print | Product List | Glossary On
Versions: 1 2 3 4 5 6 7 8 9 10 11 12 13 14 15 16 17 18 19 20 21 22 23 24 25 26 27 28 29 30 31 32 33 34 35 36 37 38 39 40 41 42 43 44 45 46 47 48 49 50
000
ASUS43 KMPX 271610
RWRMN
WEATHER ROUNDUP FOR MINNESOTA
NATIONAL WEATHER SERVICE TWIN CITIES/CHANHASSEN MN
1000 AM CST MON FEB 27 2017


NOTE: "FAIR" INDICATES FEW OR NO CLOUDS BELOW 12,000 FEET WITH NO
SIGNIFICANT WEATHER AND/OR OBSTRUCTIONS TO VISIBILITY. N/A MEANS
CURRENT SKY AND/OR WEATHER CONDITIONS ARE NOT AVAILABLE.

MNZ060>063-068>070-271700-
   Twin Cities Metro

CITY           SKY/WX    TMP DP  RH WIND       PRES   REMARKS
TWIN CITIES    CLOUDY    36  19  50 SW14      29.98R
ST PAUL        CLOUDY    36  23  59 S8        30.00R
CRYSTAL        CLOUDY    35  21  56 S10       29.96R WCI  27
BLAINE         PTSUNNY   28  25  86 SW12      29.96R WCI  18
LAKEVILLE      CLOUDY    34  23  64 S9        29.98R WCI  26
EDEN PRAIRIE   CLOUDY    35  22  58 SW10      29.97R WCI  27
SOUTH ST PAUL  CLOUDY    36  21  55 S7        29.99R
LAKE ELMO      FAIR      34  23  64 S10       29.99R WCI  26
$$
MNZ001>005-007-008-013>017-022>024-027-028-271700-
   Northwest Minnesota

CITY           SKY/WX    TMP DP  RH WIND       PRES   REMARKS
BEMIDJI        MOSUNNY   18  10  69 S5        29.90S WCI  11
HALLOCK        MOSUNNY   18  12  79 S10       29.89S WCI   6
ROSEAU         CLOUDY    16  10  79 S8        29.88S WCI   5
WARROAD        MOSUNNY   18  10  73 S5        29.88S WCI  11
CROOKSTON      CLOUDY    19  18  93 S5        29.92S WCI  13
FOSSTON        SUNNY     21  10  63 S6        29.90S WCI  14
DETROIT LAKES  CLOUDY    25  16  68 SE10      29.89S WCI  15
MOORHEAD       SUNNY     23  14  68 E5        29.90S WCI  17
PARK RAPIDS    SUNNY     22  11  62 SE7       29.89S WCI  13
MAHNOMEN       FAIR      22  14  71 S5        29.89S WCI  16
$$
MNZ006-009>011-018-025>026-271700-
   North Central Minnesota

CITY           SKY/WX    TMP DP  RH WIND       PRES   REMARKS
BAUDETTE       PTSUNNY   14   9  80 S5        29.89S WCI   6
FLAG ISLAND    CLOUDY    12   9  85 S12       29.87S WCI  -2
INTL FALLS     MOSUNNY   15   9  76 S5        29.93R WCI   8
WASKISH        CLOUDY    18  12  79 CALM      29.92R
BIG FORK       CLOUDY    19   9  63 CALM      29.92S
LONGVILLE      MOSUNNY   23  12  63 SE5       29.92S WCI  17
GRAND RAPIDS   FLURRIES  22  12  65 S6        29.95S WCI  14
CRANE LAKE     CLOUDY    14   7  73 S7        29.97S WCI   4
ORR            CLOUDY    18   5  57 CALM      29.91S
COOK           CLOUDY    18   7  62 SE3       29.94F
WALKER         FAIR      20  10  62 SE3       29.91R
$$
MNZ012-019>021-037-271700-
   Northeast Minnesota

CITY           SKY/WX    TMP DP  RH WIND       PRES   REMARKS
DULUTH         CLOUDY    23  17  78 CALM      29.94R
ELY            CLOUDY    12   7  79 CALM      29.94S
HIBBING        CLOUDY    15   5  64 E3        29.94S
EVELETH        LGT SNOW  17   4  54 CALM      29.95S
DULUTH HARBOR  PTSUNNY   25  18  74 CALM      30.00S
TWO HARBORS    LGT SNOW  27  19  74 CALM      29.95S
SILVER BAY     LGT SNOW  23  18  80 CALM      29.96S
GRAND MARAIS     N/A     24  12  60 NE5       30.02S WCI  18
G MARAIS ARPRT CLOUDY    18   3  53 SE5       29.94R WCI  11
$$
MNZ029>031-032-039>041-046>048-054>057-064-271700-
   West Central Minnesota

CITY           SKY/WX    TMP DP  RH WIND       PRES   REMARKS
FERGUS FALLS   CLOUDY    23  16  74 SE7       29.93S WCI  15
WHEATON        CLOUDY    25  19  80 SE6       29.91S WCI  18
MORRIS         CLOUDY    28  25  86 SE9       29.89R WCI  20
ALEXANDRIA     CLOUDY    26  21  81 E6        29.89S WCI  19
ELBOW LAKE     FAIR      24  19  84 SE8       29.89S WCI  14
WADENA         CLOUDY    21  12  68 E5        29.89S WCI  15
GLENWOOD       CLOUDY    27  25  93 SE6       29.90S WCI  20
APPLETON       CLOUDY    30  25  80 S5        29.90S WCI  25
BENSON         CLOUDY    34  23  64 SW7       29.92R WCI  28
ORTONVILLE     CLOUDY    27  21  80 CALM      29.89S
MADISON        CLOUDY    30  28  93 SE3       29.91S
WILLMAR        FAIR      32  25  74 S5        29.93R WCI  27
$$
MNZ033>034-036-042>043-049>051-058-059-271700-
   Central Minnesota

CITY           SKY/WX    TMP DP  RH WIND       PRES   REMARKS
ST CLOUD       CLOUDY    30  24  78 S8        29.93R WCI  22
SAUK CENTRE    FAIR      26  22  87 E6        29.91S WCI  19
PAYNESVILLE    CLOUDY    31  24  75 S8        29.92R WCI  24
AITKIN         PTSUNNY   27  16  63 CALM      29.93R
PINE RIVER     SUNNY     21  12  68 S3        29.95S
BRAINERD       SUNNY     25  18  74 SE3       29.93R
STAPLES        SUNNY     23  14  68 SE5       29.91S WCI  17
LONG PRAIRIE   FAIR      27  21  80 NE5       29.91S WCI  21
LITTLE FALLS   CLOUDY    28  21  74 SE5       29.93R WCI  23
LITCHFIELD     CLOUDY    34  27  75 S6        29.94R WCI  29
BUFFALO        CLOUDY    32  24  71 S7        29.96R WCI  26
MAPLE LAKE     CLOUDY    33  27  78 S6        29.95R WCI  27
HUTCHINSON     MOSUNNY   33  27  80 S10       29.96R WCI  25
$$
MNZ037-044-045-052-053-271700-
   East Central Minnesota

CITY           SKY/WX    TMP DP  RH WIND       PRES   REMARKS
PRINCETON      SUNNY     34  25  69 S7        29.95R WCI  28
MORA           CLOUDY    28  23  80 SW6       29.97R WCI  22
CAMBRIDGE      SUNNY     34  21  60 S8        29.94S WCI  27
RUSH CITY      SUNNY     31  24  74 S8        29.96S WCI  24
MOOSE LAKE     SUNNY     27  18  69 CALM      29.94R
HINCKLEY       CLOUDY    28  25  86 S6        29.96R WCI  22
CLOQUET        PTSUNNY   21  16  79 CALM      29.95R
MCGREGOR       CLOUDY    27  18  69 CALM      29.95R
$$
MNZ071>073-080-081-089-090-097-098-271700-
   Southwest Minnesota

CITY           SKY/WX    TMP DP  RH WIND       PRES   REMARKS
MONTEVIDEO     CLOUDY    32  27  80 SW6       29.93R WCI  26
GRANITE FALLS  CLOUDY    32  26  77 S3        29.94R
CANBY          CLOUDY    32  22  66 CALM      29.91R
MARSHALL       CLOUDY    35  20  54 SW10      29.91R WCI  27
REDWOOD FALLS  CLOUDY    35  25  66 SW13      29.93S WCI  26
OLIVIA         CLOUDY    32  27  80 S7        29.93R WCI  26
PIPESTONE      SUNNY     34  23  64 S9        29.88S WCI  26
WINDOM         SUNNY     36  23  60 S15       29.93R
WORTHINGTON    MOSUNNY   33  23  66 S17       29.93R WCI  22
JACKSON          N/A     32  21  64 S13       29.95S WCI  22
TRACY          MOSUNNY   37  25  61 SW18      29.90S
SLAYTON        SUNNY     32  24  73 S12       29.91R WCI  23
$$
MNZ065>067-074>077-082>085-091>093-271700-
   South Central Minnesota

CITY           SKY/WX    TMP DP  RH WIND       PRES   REMARKS
MANKATO          N/A     30  21  69 S9        30.00  WCI  22
NEW ULM        MOSUNNY   36  23  60 S14       29.95S
ST JAMES       SUNNY     30  19  64 S12       29.97R WCI  21
FAIRMONT       SUNNY     29  22  75 S13       29.98R WCI  19
GLENCOE        CLOUDY    32  28  82 S9        29.96R WCI  25
FARIBAULT      CLOUDY    27  18  69 S12       30.00R WCI  16
OWATONNA       CLOUDY    28  19  69 S13       30.00R WCI  18
WASECA         SUNNY     30  23  74 S10       30.01R WCI  21
ALBERT LEA     SUNNY     28  19  69 S8        30.00S WCI  20
$$
MNZ078>079-086>088-094>096-271700-
   Southeast Minnesota

CITY           SKY/WX    TMP DP  RH WIND       PRES   REMARKS
ROCHESTER      SUNNY     27  23  85 S12       30.02R WCI  17
RED WING       CLOUDY    30  18  59 SE6       30.02R WCI  24
STANTON        CLOUDY    30  20  67 S9        29.99R WCI  22
WINONA         SUNNY     34  27  75 SE5       30.07R WCI  30
AUSTIN         SUNNY    N/A N/A N/A S6        30.02R
PRESTON        SUNNY     29  23  77 S7        30.04R WCI  22
$$
ABBREVIATIONS USED IN REMARKS
   TC - TEMPERATURES IN CELSIUS
  WCI - WIND CHILL INDEX
   HX - HEAT INDEX
  VSB - VISIBILITY
$$




USA.gov is the U.S. government's official web portal to all federal, state and local government web resources and services.